Jefferson, GA

12:52 PM EDT on August 18, 2017 (GMT -0400)
Jefferson

Weather History for K19A - February, 2013

Change the Weather History Date:

Wednesday, February 27, 2013

  Actual Average (KWDR) Record (KWDR)
Temperature  
Mean Temperature 48 °F -  
Max Temperature 55 °F 60 °F 78 °F (1962)
Min Temperature 41 °F 33 °F 11 °F (1963)
Degree Days  
Heating Degree Days 17    
Moisture  
Dew Point 23 °F    
Average Humidity 41    
Maximum Humidity 61    
Minimum Humidity 21    
Precipitation  
Precipitation 0.00 in - - ()
Sea Level Pressure  
Sea Level Pressure 29.81 in    
Wind  
Wind Speed 11 mph (West)    
Max Wind Speed 17 mph    
Max Gust Speed 25 mph    
Visibility 10 miles    
Events      
Averages and records for this station are not official NWS values.
T = Trace of Precipitation, MM = Missing Value Source: NWS Daily Summary

Daily Weather History Graph

Daily Weather History Graph

Search for Another Location

Airport or City:

Trip Planner

Search our weather history database for the weather conditions in past years. The results will help you decide how hot, cold, wet, or windy it might be!

Date:

Astronomy

Feb. 27, 2013 Rise Set
Actual Time 7:05 AM EST 6:29 PM EST
Civil Twilight 6:40 AM EST 6:54 PM EST
Nautical Twilight 6:10 AM EST 7:23 PM EST
Astronomical Twilight 5:41 AM EST 7:52 PM EST
Moon 8:40 PM EST (2/27) 7:47 AM EST (2/27)
Length of Visible Light 12h 14m
Length of Day
11h 23m
Waning Gibbous, 96% of the Moon is Illuminated
Feb 27
Waning Gibbous
Mar 4
Last Quarter
Mar 11
New
Mar 19
First Quarter
Mar 27
Full

Hourly Weather History & Observations

Time (EST) Temp. Windchill Dew Point Humidity Pressure Visibility Wind Dir Wind Speed Gust Speed Precip Events Conditions
12:15 AM 42.8 °F 37.5 °F 30.2 °F 61% 29.74 in 10.0 mi West 9.2 mph - N/A   Overcast
12:35 AM 42.8 °F 38.0 °F 30.2 °F 61% 29.75 in 10.0 mi West 8.1 mph - N/A   Overcast
12:55 AM 42.8 °F 37.5 °F 30.2 °F 61% 29.75 in 10.0 mi West 9.2 mph 16.1 mph N/A   Overcast
1:15 AM 42.8 °F 34.8 °F 30.2 °F 61% 29.76 in 10.0 mi WNW 17.3 mph 23.0 mph N/A   Overcast
1:35 AM 42.8 °F 35.8 °F 30.2 °F 61% 29.78 in 10.0 mi West 13.8 mph 18.4 mph N/A   Overcast
1:55 AM 42.8 °F 35.8 °F 26.6 °F 53% 29.77 in 10.0 mi West 13.8 mph 21.9 mph N/A   Overcast
2:35 AM 42.8 °F 37.0 °F 26.6 °F 53% 29.78 in 10.0 mi West 10.4 mph - N/A   Overcast
2:55 AM 42.8 °F 37.0 °F 26.6 °F 53% 29.77 in 10.0 mi West 10.4 mph 16.1 mph N/A   Overcast
3:15 AM 42.8 °F 37.0 °F 26.6 °F 53% 29.77 in 10.0 mi West 10.4 mph 16.1 mph N/A   Overcast
3:35 AM 42.8 °F 37.0 °F 26.6 °F 53% 29.77 in 10.0 mi West 10.4 mph - N/A   Overcast
3:55 AM 42.8 °F 36.6 °F 26.6 °F 53% 29.77 in 10.0 mi West 11.5 mph - N/A   Overcast
4:15 AM 41.0 °F 33.1 °F 26.6 °F 57% 29.78 in 10.0 mi West 15.0 mph 19.6 mph N/A   Overcast
4:35 AM 41.0 °F 33.5 °F 26.6 °F 57% 29.78 in 10.0 mi WNW 13.8 mph 24.2 mph N/A   Overcast
4:55 AM 41.0 °F 35.2 °F 26.6 °F 57% 29.78 in 10.0 mi West 9.2 mph 20.7 mph N/A   Overcast
5:15 AM 41.0 °F 33.1 °F 26.6 °F 57% 29.80 in 10.0 mi West 15.0 mph 20.7 mph N/A   Overcast
5:35 AM 41.0 °F 33.1 °F 26.6 °F 57% 29.81 in 10.0 mi WNW 15.0 mph 24.2 mph N/A   Overcast
5:55 AM 41.0 °F 33.1 °F 26.6 °F 57% 29.81 in 10.0 mi WNW 15.0 mph 19.6 mph N/A   Overcast
6:15 AM 41.0 °F 33.9 °F 26.6 °F 57% 29.81 in 10.0 mi WNW 12.7 mph 20.7 mph N/A   Overcast
6:35 AM 41.0 °F 34.3 °F 24.8 °F 53% 29.81 in 10.0 mi WNW 11.5 mph 19.6 mph N/A   Overcast
7:15 AM 41.0 °F 33.1 °F 23.0 °F 49% 29.82 in 10.0 mi WNW 15.0 mph 25.3 mph N/A   Overcast
7:35 AM 41.0 °F 35.2 °F 24.8 °F 53% 29.83 in 10.0 mi WNW 9.2 mph - N/A   Overcast
7:55 AM 41.0 °F 34.7 °F 24.8 °F 53% 29.84 in 10.0 mi WNW 10.4 mph 21.9 mph N/A   Overcast
8:15 AM 41.0 °F 34.3 °F 24.8 °F 53% 29.83 in 10.0 mi WNW 11.5 mph 23.0 mph N/A   Overcast
8:35 AM 41.0 °F 34.3 °F 24.8 °F 53% 29.84 in 10.0 mi WNW 11.5 mph 18.4 mph N/A   Mostly Cloudy
9:15 AM 42.8 °F 36.2 °F 23.0 °F 46% 29.86 in 10.0 mi WNW 12.7 mph 20.7 mph N/A   Overcast
9:35 AM 42.8 °F 34.8 °F 23.0 °F 46% 29.87 in 10.0 mi WNW 17.3 mph 21.9 mph N/A   Mostly Cloudy
9:55 AM 44.6 °F 38.1 °F 23.0 °F 43% 29.87 in 10.0 mi WNW 13.8 mph 21.9 mph N/A   Mostly Cloudy
10:15 AM 44.6 °F 38.8 °F 23.0 °F 43% 29.86 in 10.0 mi West 11.5 mph - N/A   Scattered Clouds
10:35 AM 44.6 °F 38.1 °F 23.0 °F 43% 29.87 in 10.0 mi West 13.8 mph - N/A   Scattered Clouds
10:55 AM 46.4 °F 40.7 °F 23.0 °F 40% 29.87 in 10.0 mi West 12.7 mph 21.9 mph N/A   Scattered Clouds
11:15 AM 46.4 °F 40.7 °F 24.8 °F 43% 29.87 in 10.0 mi WNW 12.7 mph 18.4 mph N/A   Clear
11:35 AM 46.4 °F 40.1 °F 23.0 °F 40% 29.87 in 10.0 mi West 15.0 mph - N/A   Clear
11:55 AM 46.4 °F 41.1 °F 23.0 °F 40% 29.88 in 10.0 mi West 11.5 mph 20.7 mph N/A   Clear
12:15 PM 48.2 °F - 23.0 °F 37% 29.87 in 10.0 mi WSW 9.2 mph 18.4 mph N/A   Clear
12:35 PM 48.2 °F - 23.0 °F 37% 29.86 in 10.0 mi West 9.2 mph - N/A   Clear
12:55 PM 50.0 °F - 23.0 °F 35% 29.85 in 10.0 mi WSW 10.4 mph 19.6 mph N/A   Clear
1:55 PM 50.0 °F - 23.0 °F 35% 29.84 in 10.0 mi SW 10.4 mph 16.1 mph N/A   Clear
2:15 PM 53.6 °F - 21.2 °F 28% 29.83 in 10.0 mi WSW 12.7 mph 17.3 mph N/A   Clear
2:35 PM 53.6 °F - 21.2 °F 28% 29.83 in 10.0 mi WSW 9.2 mph 21.9 mph N/A   Clear
2:55 PM 53.6 °F - 17.6 °F 24% 29.82 in 10.0 mi West 12.7 mph 20.7 mph N/A   Clear
3:15 PM 55.4 °F - 17.6 °F 23% 29.82 in 10.0 mi West 10.4 mph 20.7 mph N/A   Clear
3:35 PM 55.4 °F - 15.8 °F 21% 29.81 in 10.0 mi WNW 13.8 mph 24.2 mph N/A   Clear
3:55 PM 55.4 °F - 15.8 °F 21% 29.80 in 10.0 mi West 11.5 mph 18.4 mph N/A   Clear
4:15 PM 55.4 °F - 17.6 °F 23% 29.80 in 10.0 mi WSW 12.7 mph 18.4 mph N/A   Clear
4:35 PM 55.4 °F - 17.6 °F 23% 29.80 in 10.0 mi West 11.5 mph 16.1 mph N/A   Clear
4:55 PM 55.4 °F - 17.6 °F 23% 29.79 in 10.0 mi WSW 12.7 mph 18.4 mph N/A   Clear
5:15 PM 55.4 °F - 17.6 °F 23% 29.78 in 10.0 mi WSW 9.2 mph 16.1 mph N/A   Clear
5:35 PM 55.4 °F - 15.8 °F 21% 29.79 in 10.0 mi West 11.5 mph 17.3 mph N/A   Clear
5:55 PM 55.4 °F - 15.8 °F 21% 29.79 in 10.0 mi West 9.2 mph 16.1 mph N/A   Clear
6:15 PM 53.6 °F - 21.2 °F 28% 29.80 in 10.0 mi NW 8.1 mph - N/A   Clear
6:35 PM 53.6 °F - 21.2 °F 28% 29.80 in 10.0 mi WNW 6.9 mph - N/A   Clear
6:55 PM 51.8 °F - 23.0 °F 33% 29.81 in 10.0 mi West 6.9 mph - N/A   Clear
7:15 PM 51.8 °F - 21.2 °F 30% 29.81 in 10.0 mi WNW 8.1 mph - N/A   Clear
7:35 PM 50.0 °F - 23.0 °F 35% 29.81 in 10.0 mi WNW 6.9 mph - N/A   Clear
7:55 PM 50.0 °F - 23.0 °F 35% 29.81 in 10.0 mi West 4.6 mph - N/A   Clear
8:15 PM 50.0 °F - 23.0 °F 35% 29.82 in 10.0 mi West 5.8 mph - N/A   Mostly Cloudy
8:35 PM 50.0 °F - 23.0 °F 35% 29.82 in 10.0 mi West 4.6 mph - N/A   Overcast
8:55 PM 50.0 °F - 23.0 °F 35% 29.81 in 10.0 mi West 5.8 mph - N/A   Overcast
9:15 PM 50.0 °F - 23.0 °F 35% 29.82 in 10.0 mi West 6.9 mph - N/A   Mostly Cloudy
9:35 PM 50.0 °F - 23.0 °F 35% 29.82 in 10.0 mi West 6.9 mph - N/A   Scattered Clouds
9:55 PM 50.0 °F - 23.0 °F 35% 29.81 in 10.0 mi WSW 8.1 mph - N/A   Scattered Clouds
10:15 PM 50.0 °F - 23.0 °F 35% 29.82 in 10.0 mi West 9.2 mph - N/A   Clear
10:35 PM 50.0 °F - 21.2 °F 32% 29.82 in 10.0 mi West 13.8 mph 25.3 mph N/A   Clear
10:55 PM 50.0 °F - 21.2 °F 32% 29.82 in 10.0 mi West 8.1 mph 16.1 mph N/A   Clear
11:15 PM 50.0 °F - 21.2 °F 32% 29.82 in 10.0 mi West 9.2 mph - N/A   Clear
11:35 PM 50.0 °F - 21.2 °F 32% 29.81 in 10.0 mi West 13.8 mph 20.7 mph N/A   Clear
11:55 PM 48.2 °F - 23.0 °F 37% 29.81 in 10.0 mi West 10.4 mph 16.1 mph N/A   Clear